Terug naar catalogus

COSMOS 1880

ActiefMilitairPO
NORAD 18339·PAYLOAD·🇷🇺 Russia

Gelanceerd Sep 7, 1987 vanaf Plesetsk Cosmodrome

Loading…

Volgende Passages (komende 24 uur)

TLE

VersSource: Space-Track

Epoch: Sep 14, 2026, 15:04 UTC

1 18339U 87074F   26257.62797117  .00000019  00000-0  47528-4 0  9992
2 18339  82.5629 205.2448 0009058 338.6288 195.2098 12.65538282802267

Volg COSMOS 1880 in realtime met AllMySat

Download on the App Store